Вернуться в каталог

STARLINK-3797

АктивенСвязьVLEO
NORAD 52337·PAYLOAD·🇺🇸 United States

Запущен Apr 29, 2022 с Cape Canaveral Space Force Station

Loading…

Ближайшие Пролёты (ближайшие 24 часа)

TLE

СвежийSource: CelesTrak SupGP

Эпоха: Sep 14, 2026, 20:26 UTC

1 52337C 22045G   26257.85187500  .00734170  00000+0  22972-1 0  2570
2 52337  53.1610  77.9153 0001290  84.8028  19.4297 15.32209016    14

Отслеживайте STARLINK-3797 в реальном времени с AllMySat

Download on the App Store